Weather reports worldwide

Advertisment
Rostherne No 2, United Kingdom (3351): temperature & dewpoint: 13.08.2018 20:00:00 - 19.08.2018 20:00:00 (BST)Rostherne No 2, United Kingdom (3351): wind speed & gusts: 13.08.2018 20:00:00 - 19.08.2018 20:00:00 (BST)Rostherne No 2, United Kingdom (3351): wind direction: 13.08.2018 20:00:00 - 19.08.2018 20:00:00 (BST)Rostherne No 2, United Kingdom (3351): reduced air pressure: 13.08.2018 20:00:00 - 19.08.2018 20:00:00 (BST)Rostherne No 2, United Kingdom (3351): visibility: 13.08.2018 20:00:00 - 19.08.2018 20:00:00 (BST)Rostherne No 2, United Kingdom (3351): sunshine duration: 13.08.2018 20:00:00 - 19.08.2018 20:00:00 (BST)Rostherne No 2, United Kingdom (3351): precipitation: 13.08.2018 20:00:00 - 19.08.2018 20:00:00 (BST)
Date & Time tt [°C] td [°C] ff [km/h] ff [kn] fx [km/h] fx [kn] dd ppp [hPa] vv [km] sd [min] rr [mm]
19.08.2018 20:00:00 18,3 15,1 15 8 - - NW 1018,6 50 0 0,0
19.08.2018 19:00:00 18,6 15,1 16 9 - - NW 1017,8 45 0 0,0
19.08.2018 18:00:00 18,9 15,2 18 10 - - WNW 1017,5 45 0 0,0
19.08.2018 17:00:00 18,4 15,5 18 10 - - WNW 1017,6 50 0 0,0
19.08.2018 16:00:00 20,3 16,7 26 14 - - NW 1017,1 40 18 0,0
19.08.2018 15:00:00 19,0 15,7 21 11 - - W 1016,7 35 0 0,0
19.08.2018 14:00:00 18,9 16,0 18 10 - - WNW 1016,3 35 0 0,0
19.08.2018 13:00:00 18,6 16,4 16 9 - - WNW 1015,6 24 0 0,0
19.08.2018 12:00:00 18,0 16,7 15 8 - - WNW 1015,2 25 0 0,0
19.08.2018 11:00:00 17,3 16,6 11 6 - - W 1014,8 11 0 1,0
19.08.2018 10:00:00 17,5 16,4 11 6 - - SW 1014,1 19 0 0,0
19.08.2018 09:00:00 17,1 16,7 8 4 - - SW 1013,6 15 0 0,6
19.08.2018 08:00:00 16,7 16,3 13 7 - - SW 1013,1 2,7 0 1,8
19.08.2018 07:00:00 16,6 15,7 16 9 - - S 1012,6 2,5 0 0,6
19.08.2018 06:00:00 17,7 15,0 18 10 - - SSW 1012,6 23 0 0,0
19.08.2018 05:00:00 18,5 14,7 21 11 - - SSW 1013,3 50 0 0,0
19.08.2018 04:00:00 18,9 15,8 21 11 - - S 1013,9 50 0 0,0
19.08.2018 03:00:00 19,0 16,0 16 9 - - S 1014,8 50 0 0,0
19.08.2018 02:00:00 18,8 16,0 16 9 - - S 1015,5 45 0 0,0
19.08.2018 01:00:00 19,2 16,1 13 7 - - SSW 1016,1 50 - 0,0
19.08.2018 00:00:00 19,1 16,0 11 6 - - S 1016,7 50 0 0,0
18.08.2018 23:00:00 19,6 16,1 11 6 - - SW 1016,9 50 0 0,0
18.08.2018 22:00:00 19,9 16,2 15 8 - - SSW 1017,2 50 0 0,0
18.08.2018 21:00:00 20,1 16,0 11 6 - - SW 1017,4 50 0 0,0
18.08.2018 20:00:00 20,7 16,1 8 4 - - SW 1017,3 50 0 0,0
18.08.2018 19:00:00 21,2 16,0 13 7 - - WSW 1017,1 50 0 0,0
18.08.2018 18:00:00 22,0 15,8 16 9 - - WSW 1017,1 50 0 0,0
18.08.2018 17:00:00 22,1 15,0 22 12 - - WSW 1017,2 45 54 0,0
18.08.2018 16:00:00 22,9 15,4 16 9 - - SW 1017,2 30 24 0,0
18.08.2018 15:00:00 21,1 14,5 16 9 - - WSW 1017,6 20 0 0,0
18.08.2018 14:00:00 20,7 14,1 15 8 - - SW 1017,9 35 12 0,0
18.08.2018 13:00:00 19,7 13,8 15 8 - - SW 1018,0 29 0 0,0
18.08.2018 12:00:00 19,0 13,6 15 8 - - SW 1018,0 24 0 0,0
18.08.2018 11:00:00 18,4 13,4 11 6 - - SW 1018,1 23 0 0,0
18.08.2018 10:00:00 17,4 12,9 13 7 - - WSW 1018,1 23 0 0,0
18.08.2018 09:00:00 17,4 12,6 13 7 - - WSW 1017,9 23 0 0,0
18.08.2018 08:00:00 17,3 12,4 16 9 - - WSW 1017,7 25 0 0,0
18.08.2018 07:00:00 16,8 13,8 9 5 - - WSW 1017,4 18 0 0,0
18.08.2018 06:00:00 16,4 13,7 9 5 - - WSW 1016,9 16 0 0,0
18.08.2018 05:00:00 16,3 13,5 8 4 - - SW 1016,7 16 0 0,0
18.08.2018 04:00:00 16,3 13,3 8 4 - - S 1016,6 18 0 0,0
18.08.2018 03:00:00 15,9 13,4 9 5 - - S 1016,7 20 0 0,0
18.08.2018 02:00:00 15,8 13,4 9 5 - - SSW 1016,7 20 0 0,0
18.08.2018 01:00:00 15,4 13,3 8 4 - - S 1017,1 17 - 0,0
18.08.2018 00:00:00 15,9 13,3 8 4 - - SSW 1017,3 21 0 0,0
17.08.2018 23:00:00 16,0 13,4 13 7 - - SW 1017,3 21 0 0,0
17.08.2018 22:00:00 15,8 13,3 9 5 - - SSW 1017,3 23 0 0,0
17.08.2018 21:00:00 15,6 13,1 13 7 - - SW 1017,3 19 0 0,0
17.08.2018 20:00:00 15,2 13,0 13 7 - - SSW 1017,1 12 0 0,0
17.08.2018 19:00:00 16,0 12,1 15 8 - - SW 1017,2 15 0 0,0
17.08.2018 18:00:00 15,5 12,0 18 10 - - WSW 1017,3 15 0 0,0
17.08.2018 17:00:00 16,2 11,5 15 8 - - SW 1017,4 30 0 0,0
17.08.2018 16:00:00 15,6 11,0 18 10 - - WSW 1017,8 19 0 0,0
17.08.2018 15:00:00 16,5 10,1 18 10 - - WSW 1017,8 30 0 0,0
17.08.2018 14:00:00 16,6 9,8 15 8 - - WSW 1017,9 27 0 0,0
17.08.2018 13:00:00 16,9 10,6 16 9 - - SW 1018,1 27 0 0,0
17.08.2018 12:00:00 16,4 10,3 15 8 - - WSW 1018,2 21 0 0,0
17.08.2018 11:00:00 15,5 10,4 13 7 - - SW 1018,3 50 0 0,0
17.08.2018 10:00:00 14,7 10,5 11 6 - - SW 1018,2 30 0 0,0
17.08.2018 09:00:00 14,1 10,4 9 5 - - SW 1017,9 30 0 0,0
17.08.2018 08:00:00 13,6 10,7 11 6 - - SW 1017,6 30 48 0,0
17.08.2018 07:00:00 12,2 10,5 11 6 - - WSW 1017,2 24 6 0,0
17.08.2018 06:00:00 11,8 10,2 9 5 - - SW 1016,6 35 0 0,0
17.08.2018 05:00:00 12,1 10,1 9 5 - - SW 1016,3 30 0 0,0
17.08.2018 04:00:00 12,3 10,1 9 5 - - SW 1016,1 30 0 0,0
17.08.2018 03:00:00 13,0 10,5 11 6 - - WSW 1015,7 40 0 0,0
17.08.2018 02:00:00 14,2 10,5 11 6 - - W 1015,3 40 0 0,0
17.08.2018 01:00:00 13,8 10,9 9 5 - - WSW 1015,2 30 - 0,0
17.08.2018 00:00:00 14,1 10,9 13 7 - - WSW 1015,2 26 0 0,0
16.08.2018 23:00:00 14,0 10,6 11 6 - - SW 1014,9 30 0 0,0
16.08.2018 22:00:00 14,4 10,3 9 5 - - SW 1014,4 45 0 0,0
16.08.2018 21:00:00 15,6 10,2 9 5 - - WSW 1013,7 45 0 0,0
16.08.2018 20:00:00 16,3 10,0 11 6 - - WSW 1013,1 40 6 0,0
16.08.2018 19:00:00 16,7 10,5 16 9 - - W 1012,6 45 18 0,0
16.08.2018 18:00:00 18,0 11,7 15 8 - - W 1012,2 27 12 0,2
16.08.2018 17:00:00 17,6 10,6 21 11 - - W 1011,9 30 6 0,0
16.08.2018 16:00:00 17,3 9,6 21 11 - - W 1011,5 14 6 0,0
16.08.2018 15:00:00 17,6 9,3 22 12 - - W 1011,0 29 6 0,0
16.08.2018 14:00:00 17,4 9,2 22 12 - - W 1010,7 30 6 0,0
16.08.2018 13:00:00 19,6 10,7 18 10 - - W 1010,4 20 30 0,0
16.08.2018 12:00:00 17,9 10,1 16 9 - - W 1010,5 22 48 0,0
16.08.2018 11:00:00 17,0 10,3 18 10 - - W 1010,6 23 24 0,0
16.08.2018 10:00:00 15,5 11,1 22 12 - - W 1010,5 30 0 0,0
16.08.2018 09:00:00 14,1 12,5 8 4 - - W 1010,2 18 0 0,0
16.08.2018 08:00:00 13,5 12,3 9 5 - - W 1009,7 13 0 0,2
16.08.2018 07:00:00 13,2 12,0 8 4 - - WSW 1009,3 14 0 0,0
16.08.2018 06:00:00 13,8 12,4 18 10 - - WNW 1009,0 10 0 0,2
16.08.2018 05:00:00 15,3 14,3 8 4 - - WSW 1008,7 12 0 2,6
16.08.2018 04:00:00 16,7 16,0 9 5 - - S 1008,8 12 0 0,8
16.08.2018 03:00:00 17,0 16,0 9 5 - - S 1009,3 9 0 0,8
16.08.2018 02:00:00 17,8 16,1 9 5 - - SSW 1009,6 50 0 0,0
16.08.2018 01:00:00 17,9 16,1 11 6 - - S 1010,0 50 - 0,0
16.08.2018 00:00:00 18,1 16,1 13 7 - - SSW 1010,2 35 0 0,2
15.08.2018 23:00:00 18,5 16,0 13 7 - - SW 1010,5 50 0 0,2
15.08.2018 22:00:00 19,4 15,6 15 8 - - SSW 1010,8 50 0 0,0
15.08.2018 21:00:00 19,7 15,5 18 10 - - SSW 1010,9 50 0 0,0
15.08.2018 20:00:00 19,9 15,8 15 8 52 28 SSW 1011,1 50 0 0,0
15.08.2018 19:00:00 20,2 15,4 22 12 - - SSW 1011,5 50 0 0,0
15.08.2018 18:00:00 20,7 15,6 18 10 - - SSW 1011,6 50 0 0,0
15.08.2018 17:00:00 21,1 15,9 16 9 - - SSW 1012,4 50 0 0,0
15.08.2018 16:00:00 21,6 15,8 21 11 - - SW 1012,7 30 0 0,0
15.08.2018 15:00:00 21,7 15,9 22 12 - - SW 1013,3 35 0 0,0
15.08.2018 14:00:00 21,4 15,6 18 10 - - WSW 1013,8 45 18 0,0
15.08.2018 13:00:00 22,7 15,5 22 12 - - SW 1013,5 30 24 0,0
15.08.2018 12:00:00 21,4 15,9 15 8 - - SSW 1014,0 30 6 0,0
15.08.2018 11:00:00 20,4 15,2 15 8 - - SSW 1014,2 45 18 0,0
15.08.2018 10:00:00 20,1 15,4 13 7 - - SW 1014,3 40 6 0,0
15.08.2018 09:00:00 18,0 15,1 9 5 - - SSW 1014,6 35 0 0,0
15.08.2018 08:00:00 17,5 14,7 11 6 - - S 1014,5 35 0 0,0
15.08.2018 07:00:00 16,8 14,6 11 6 - - S 1014,7 22 0 0,0
15.08.2018 06:00:00 16,1 14,4 9 5 - - S 1014,9 16 0 0,0
15.08.2018 05:00:00 15,1 13,8 11 6 - - SSW 1014,8 12 0 0,0
15.08.2018 04:00:00 15,6 13,8 13 7 - - SSW 1015,1 16 0 0,0
15.08.2018 03:00:00 16,2 13,9 11 6 - - SSW 1015,2 19 0 0,0
15.08.2018 02:00:00 16,1 13,8 8 4 - - S 1015,4 20 0 0,0
15.08.2018 01:00:00 16,4 13,8 8 4 - - S 1015,7 23 - 0,0
15.08.2018 00:00:00 17,7 13,9 11 6 - - SSW 1015,6 30 0 0,0
14.08.2018 23:00:00 18,3 14,3 11 6 - - WSW 1015,7 40 0 0,0
14.08.2018 22:00:00 18,8 14,6 11 6 - - WSW 1015,6 45 0 0,0
14.08.2018 21:00:00 19,2 15,0 9 5 - - WSW 1015,4 45 0 0,0
14.08.2018 20:00:00 19,4 15,1 5 3 - - WSW 1015,4 29 0 0,0
14.08.2018 19:00:00 19,8 15,2 9 5 - - W 1015,6 40 12 0,0
14.08.2018 18:00:00 19,3 15,4 9 5 - - W 1015,5 40 0 0,0
14.08.2018 17:00:00 19,1 15,3 13 7 - - WNW 1015,5 40 0 0,0
14.08.2018 16:00:00 19,2 14,6 11 6 - - W 1015,4 40 0 0,0
14.08.2018 15:00:00 20,2 15,0 13 7 - - W 1015,4 45 0 0,0
14.08.2018 14:00:00 19,7 14,4 15 8 - - WNW 1015,3 45 0 0,0
14.08.2018 13:00:00 19,3 14,8 9 5 - - WNW 1015,0 35 0 0,0
14.08.2018 12:00:00 19,0 16,3 13 7 - - WNW 1015,2 40 0 0,0
14.08.2018 11:00:00 18,9 14,0 16 9 - - W 1014,8 35 12 0,0
14.08.2018 10:00:00 18,6 14,4 15 8 - - W 1014,7 26 6 0,0
14.08.2018 09:00:00 15,7 13,6 5 3 - - SW 1014,5 27 0 0,0
14.08.2018 08:00:00 14,6 13,2 5 3 - - S 1014,0 22 0 0,0
14.08.2018 07:00:00 14,1 13,8 4 2 - - S 1013,8 20 6 0,0
14.08.2018 06:00:00 12,7 12,6 4 2 - - SSW 1013,7 12 0 0,0
14.08.2018 05:00:00 12,5 12,3 2 1 - - SSE 1013,4 8 0 0,0
14.08.2018 04:00:00 13,0 12,8 2 1 - - S 1013,5 8 0 0,0
14.08.2018 03:00:00 12,6 12,5 4 2 - - SSE 1013,2 9 0 0,0
14.08.2018 02:00:00 12,2 11,9 5 3 - - SSE 1013,3 7 0 0,0
14.08.2018 01:00:00 11,5 10,9 4 2 - - SSW 1013,2 9 - 0,0
14.08.2018 00:00:00 12,6 12,0 5 3 - - WSW 1012,7 18 0 0,0
13.08.2018 23:00:00 13,3 12,3 4 2 - - W 1012,2 19 0 0,0
13.08.2018 22:00:00 14,3 12,6 9 5 - - WNW 1011,7 23 0 0,0
13.08.2018 21:00:00 15,0 12,5 11 6 - - WNW 1011,5 30 0 0,0
13.08.2018 20:00:00 16,6 13,2 16 9 - - NW 1010,7 30 6 0,0

tt = temperature
td = dewpoint
ff = wind speed
fx = gusts
dd = wind direction
ppp = reduced air pressure
vv = visibility
sd = sunshine duration
rr = precipitation

Next stations